Date String (YYYY-MM-DD hh:mm:ss) UTC,Instrument flags,Ambient pressure (hPa),Sample flow (lpm),Bypass flow (lpm),Sample temperature (°C),Ambient temperature (°C),ASC tube jacket temperature (°C),LED temperature (°C),Box temperature (°C),Sample RH (%),Span deviation,Mass concentration (μg/m³),Mass concentration (μg/m³),Mass concentration (μg/m³)
DateTimeUTC,F1_M11,P_M11,Q1_M11,Q2_M11,T1_M11,T2_M11,T3_M11,T4_M11,T5_M11,U1_M11,ZSPAN_M11,X0_M11,X2_M11,X1_M11
2023-02-08 01:00:00,,0829.2,5.01,0.00,24.8,23.5,00.0,33.6,26.6,10.7,0000.0,0016.39,0006.00,0004.53
2023-02-08 01:01:00,,0829.3,5.02,0.00,24.8,23.5,00.0,33.6,26.6,10.7,0000.0,0017.21,0006.00,0004.54
2023-02-08 01:02:00,,0829.3,5.02,0.00,24.8,23.5,00.0,33.6,26.6,10.7,0000.0,0016.77,0005.99,0004.53
2023-02-08 01:03:00,,0829.2,5.00,0.00,24.8,23.5,00.0,33.6,26.6,10.7,0000.0,0017.82,0006.02,0004.52
2023-02-08 01:04:00,,0829.2,5.00,0.00,24.8,23.5,00.0,33.6,26.6,10.7,0000.0,0017.46,0005.97,0004.52
2023-02-08 01:05:00,,0829.2,5.00,0.00,24.8,23.5,00.0,33.6,26.6,10.8,0000.0,0017.11,0005.95,0004.51
2023-02-08 01:06:00,,0829.2,5.01,0.00,24.8,23.5,00.0,33.6,26.6,10.7,0000.0,0017.04,0006.00,0004.51
2023-02-08 01:07:00,,0829.2,5.00,0.00,24.8,23.5,00.0,33.6,26.6,10.7,0000.0,0017.85,0005.99,0004.51
2023-02-08 01:08:00,,0829.3,5.00,0.00,24.8,23.4,00.0,33.6,26.6,10.7,0000.0,0018.56,0005.95,0004.50
2023-02-08 01:09:00,,0829.2,5.00,0.00,24.8,23.4,00.0,33.6,26.6,10.6,0000.0,0018.53,0005.96,0004.50
2023-02-08 01:10:00,,0829.2,4.97,0.00,24.8,23.4,00.0,33.6,26.6,10.5,0000.0,0019.16,0005.96,0004.48
2023-02-08 01:11:00,,0829.2,5.00,0.00,24.8,23.4,00.0,33.6,26.5,10.5,0000.0,0019.12,0005.89,0004.46
2023-02-08 01:12:00,,0829.2,5.01,0.00,24.8,23.4,00.0,33.6,26.6,10.4,0000.0,0019.00,0005.89,0004.44
2023-02-08 01:13:00,,0829.3,5.01,0.00,24.8,23.3,00.0,33.6,26.5,10.5,0000.0,0018.52,0005.82,0004.42
2023-02-08 01:14:00,,0829.2,5.00,0.00,24.7,23.3,00.0,33.6,26.5,10.5,0000.0,0017.87,0005.73,0004.41
2023-02-08 01:15:00,,0829.2,5.01,0.00,24.7,23.3,00.0,33.6,26.5,10.5,0000.0,0018.28,0005.75,0004.39
2023-02-08 01:16:00,,0829.2,4.98,0.00,24.7,23.3,00.0,33.6,26.5,10.4,0000.0,0018.98,0005.72,0004.36
2023-02-08 01:17:00,,0829.2,4.99,0.00,24.7,23.2,00.0,33.6,26.5,10.4,0000.0,0018.92,0005.65,0004.33
2023-02-08 01:18:00,,0829.2,5.02,0.00,24.7,23.1,00.0,33.6,26.5,10.3,0000.0,0018.14,0005.60,0004.27
2023-02-08 01:19:00,,0829.2,5.00,0.00,24.7,23.1,00.0,33.6,26.4,10.1,0000.0,0017.45,0005.61,0004.23
2023-02-08 01:20:00,,0829.2,5.00,0.00,24.7,23.1,00.0,33.6,26.4,10.0,0000.0,0018.04,0005.53,0004.16
2023-02-08 01:21:00,,0829.2,4.98,0.00,24.6,23.1,00.0,33.6,26.4,09.9,0000.0,0017.24,0005.43,0004.09
2023-02-08 01:22:00,,0829.2,4.98,0.00,24.6,23.1,00.0,33.6,26.4,09.9,0000.0,0016.72,0005.31,0004.02
2023-02-08 01:23:00,,0829.2,5.00,0.00,24.6,23.1,00.0,33.5,26.3,09.8,0000.0,0015.85,0005.19,0003.96
2023-02-08 01:24:00,,0829.2,5.01,0.00,24.6,23.1,00.0,33.5,26.3,09.8,0000.0,0016.42,0005.17,0003.90
2023-02-08 01:25:00,,0829.2,5.01,0.00,24.6,23.0,00.0,33.5,26.3,09.9,0000.0,0016.25,0005.11,0003.83
2023-02-08 01:26:00,,0829.2,5.01,0.00,24.6,23.0,00.0,33.5,26.3,09.8,0000.0,0016.72,0005.08,0003.79
2023-02-08 01:27:00,,0829.2,5.00,0.00,24.5,23.0,00.0,33.5,26.3,09.8,0000.0,0016.20,0005.00,0003.74
2023-02-08 01:28:00,,0829.2,5.00,0.00,24.5,22.9,00.0,33.5,26.3,09.8,0000.0,0016.73,0004.98,0003.69
2023-02-08 01:29:00,,0829.2,4.99,0.00,24.5,22.9,00.0,33.5,26.2,09.8,0000.0,0017.86,0004.96,0003.66
2023-02-08 01:30:00,,0829.1,5.00,0.00,24.5,22.9,00.0,33.5,26.2,09.8,0000.0,0017.32,0004.86,0003.63
2023-02-08 01:31:00,,0829.1,4.99,0.00,24.5,22.8,00.0,33.5,26.2,09.8,0000.0,0016.46,0004.81,0003.62
2023-02-08 01:32:00,,0829.1,5.01,0.00,24.5,22.8,00.0,33.4,26.2,09.6,0000.0,0016.52,0004.81,0003.61
2023-02-08 01:33:00,,0829.1,5.01,0.00,24.5,22.8,00.0,33.4,26.2,09.3,0000.0,0016.05,0004.76,0003.57
2023-02-08 01:34:00,,0829.1,5.01,0.00,24.4,22.8,00.0,33.4,26.2,09.2,0000.0,0015.83,0004.69,0003.52
2023-02-08 01:35:00,,0829.1,5.02,0.00,24.4,22.8,00.0,33.4,26.2,09.2,0000.0,0015.44,0004.63,0003.46
2023-02-08 01:36:00,,0829.0,5.02,0.00,24.4,22.8,00.0,33.4,26.1,09.2,0000.0,0015.26,0004.57,0003.41
2023-02-08 01:37:00,,0829.1,5.01,0.00,24.4,22.8,00.0,33.4,26.1,09.2,0000.0,0014.36,0004.42,0003.33
2023-02-08 01:38:00,,0829.0,4.99,0.00,24.4,22.8,00.0,33.3,26.1,09.2,0000.0,0014.41,0004.36,0003.26
2023-02-08 01:39:00,,0829.0,4.98,0.00,24.4,22.7,00.0,33.3,26.1,09.1,0000.0,0015.17,0004.22,0003.20
2023-02-08 01:40:00,,0829.0,5.01,0.00,24.3,22.7,00.0,33.3,26.0,09.1,0000.0,0013.94,0004.15,0003.13
2023-02-08 01:41:00,,0829.0,5.01,0.00,24.3,22.7,00.0,33.3,26.0,09.2,0000.0,0014.36,0004.06,0003.03
2023-02-08 01:42:00,,0829.0,4.98,0.00,24.3,22.7,00.0,33.3,26.0,09.1,0000.0,0014.59,0004.01,0002.90
2023-02-08 01:43:00,,0829.0,5.00,0.00,24.3,22.6,00.0,33.3,26.0,09.1,0000.0,0014.80,0004.01,0002.82
2023-02-08 01:44:00,,0829.0,5.02,0.00,24.3,22.6,00.0,33.3,26.0,09.1,0000.0,0015.22,0004.06,0002.82
2023-02-08 01:45:00,,0829.0,5.02,0.00,24.3,22.6,00.0,33.2,26.0,09.1,0000.0,0015.43,0004.07,0002.83
2023-02-08 01:46:00,,0829.0,4.99,0.00,24.3,22.6,00.0,33.2,26.0,09.0,0000.0,0015.21,0004.04,0002.83
2023-02-08 01:47:00,,0828.9,5.04,0.00,24.2,22.6,00.0,33.2,25.9,09.0,0000.0,0015.07,0004.04,0002.82
2023-02-08 01:48:00,,0828.9,4.96,0.00,24.2,22.6,00.0,33.2,25.9,09.0,0000.0,0015.32,0004.06,0002.80
2023-02-08 01:49:00,,0828.9,5.00,0.00,24.2,22.6,00.0,33.2,25.9,09.0,0000.0,0015.16,0004.08,0002.79
2023-02-08 01:50:00,,0828.9,5.00,0.00,24.2,22.5,00.0,33.2,25.9,09.0,0000.0,0013.75,0004.03,0002.78
2023-02-08 01:51:00,,0828.9,4.99,0.00,24.2,22.5,00.0,33.2,25.9,08.9,0000.0,0013.33,0003.95,0002.76
2023-02-08 01:52:00,,0828.9,5.00,0.00,24.2,22.5,00.0,33.1,25.9,08.9,0000.0,0012.80,0003.93,0002.74
2023-02-08 01:53:00,,0828.9,5.00,0.00,24.1,22.5,00.0,33.1,25.9,08.8,0000.0,0012.10,0003.86,0002.73
2023-02-08 01:54:00,,0828.8,4.99,0.00,24.1,22.5,00.0,33.1,25.8,08.8,0000.0,0011.42,0003.78,0002.70
2023-02-08 01:55:00,,0828.9,5.00,0.00,24.1,22.5,00.0,33.1,25.7,08.8,0000.0,0011.10,0003.72,0002.65
2023-02-08 01:56:00,,0828.8,5.01,0.00,24.1,22.4,00.0,33.1,25.7,08.7,0000.0,0010.88,0003.67,0002.59
2023-02-08 01:57:00,,0828.9,5.01,0.00,24.1,22.4,00.0,33.1,25.7,08.7,0000.0,0010.73,0003.63,0002.56
2023-02-08 01:58:00,,0829.2,5.00,0.00,24.1,22.4,00.0,33.1,25.8,08.8,0000.0,0011.14,0003.59,0002.53
2023-02-08 01:59:00,,0829.2,5.02,0.00,24.1,22.4,00.0,33.0,25.7,08.8,0000.0,0011.14,0003.58,0002.53
